Flag for Norway Weather past 2 weeks in Knarrevik/Straume, Norway

Now
50 °F

Passing clouds.


Feels Like: 49 °F
Forecast: 50 / 67 °F
Wind: 5 mph from Southeast

Location: Bergen / Flesland

Current Time: Aug 2, 2015 at 5:09:35 AM

Latest Report: Aug 2, 2015 at 4:00 AM


Visibility: 28 mi

Pressure: 29.90 "Hg

Humidity: 90%

Dew point: 47 °F

Location of Knarrevik/StraumeLocation

Historic Weather in Knarrevik/Straume — Graph

°F

Knarrevik/Straume temperature yesterday

Maximum temperature yesterday: 58 °F (at 2:00 PM)
Minimum temperature yesterday: 48 °F (at 12:00 AM)
Average temperature yesterday: 52 °F

Past Weeks' High & Low Weather Summary

 TemperatureHumidityPressure
High69 °F (Jul 29, 1:00 PM)97% (Jul 25, 3:00 AM)29.96 "Hg (Jul 25, 3:00 AM)
Low46 °F (Jul 25, 5:00 AM)50% (Jul 29, 1:00 PM)29.41 "Hg (Jul 29, 11:00 AM)
Average55 °F82%29.69 "Hg
* Reported Jul 18 3:00 AM — Aug 2 3:00 AM, Knarrevik/Straume, Weather by CustomWeather, © 2015

Note: Actual official high and low records may vary slightly from our data, if they occured in-between our weather recording intervals... More about our weather records

Advertising

Knarrevik/Straume weather history for previous 24 hours

 ConditionsComfort  
Time TempWeatherWind HumidityBarometerVisibility
3:00 AM
Sun, Aug 2
50 °FOvercast.5 mph93%29.90 "Hg17 mi
12:00 AM52 °FLight rain. Overcast.3 mph90%29.89 "Hg28 mi
10:00 PM
Sat, Aug 1
51 °FScattered clouds.5 mph87%29.89 "Hg31 mi
9:00 PM52 °FRain showers. Overcast.6 mph88%29.88 "Hg22 mi
8:00 PM52 °FRain. Overcast.7 mph90%29.88 "Hg7 mi
6:00 PM55 °FOvercast.7 mph80%29.88 "Hg31 mi
5:00 PM54 °FLight rain. Overcast.7 mph87%29.89 "Hg13 mi
4:00 PM54 °FLight rain. Overcast.9 mph84%29.89 "Hg10 mi
3:00 PM55 °FLight rain. Overcast.8 mph79%29.90 "Hg12 mi
2:00 PM58 °FOvercast.8 mph66%29.90 "Hg22 mi
1:00 PM57 °FOvercast.6 mph76%29.90 "Hg22 mi
12:00 PM54 °FRain showers. Overcast.5 mph83%29.91 "Hg14 mi
11:00 AM51 °FLots of rain. Overcast.5 mph89%29.92 "Hg4 mi
10:00 AM52 °FRain showers. Overcast.6 mph84%29.92 "Hg17 mi
9:00 AM51 °FOvercast.5 mph84%29.92 "Hg31 mi
8:00 AM50 °FRain showers. Overcast.5 mph83%29.92 "Hg8 mi
7:00 AM50 °FOvercast.3 mph87%29.92 "Hg25 mi
6:00 AM49 °FDrizzle. Overcast.3 mph88%29.93 "Hg31 mi
5:00 AM50 °FRain showers. Overcast.5 mph90%29.94 "Hg31 mi
Weather by CustomWeather, © 2015

See weather overviewHow to use our weather pages